Location: Albertshausen
(50.2061°N, 9.9925°E)
Time: 08:57:09
(UTC+00:00)

Daily predictions for brighter satellites

Satellite Brightness Start Highest point End
(mag) Time Altitude Azimuth Time Altitude Azimuth Time Altitude Azimuth
Cosmos 2298 Rocket 4.2 20:04:31 10° NNW 20:09:50 67° ENE 20:15:05 10° SSE
Cosmos 2150 Rocket 4.2 20:06:08 10° NNW 20:11:35 74° ENE 20:16:57 10° SSE
CZ-4B R/B 3.5 20:08:33 10° SE 20:12:10 41° ENE 20:15:56 10° N
USA 186 0.8 20:11:43 10° SSE 20:14:05 79° ENE 20:16:19 10° N
Cosmos 836 Rocket 4.5 20:08:57 10° SSW 20:14:07 80° ESE 20:19:22 10° NNE
Cosmos 1607 4.5 20:07:59 10° NW 20:14:16 56° NE 20:20:36 10° ESE
Sich 1 3.3 20:12:13 10° N 20:16:25 53° ENE 20:20:36 10° SSE
Terra 3.5 20:22:32 10° SSW 20:26:39 30° W 20:30:48 10° NNW
Cosmos 44 Rocket 4.3 20:23:47 10° NW 20:28:39 42° WSW 20:33:23 10° S
CENTAUR R/B 2.9 20:23:34 10° SW 20:29:15 70° NW 20:36:34 10° NE
Cosmos 1758 3.2 20:27:24 10° N 20:31:03 62° ENE 20:34:43 10° SSE
Cosmos 2208 Rocket 4.0 20:30:47 10° SSW 20:35:59 85° ESE 20:41:11 10° NNE
BREEZE-M DEB (TANK) 1.5 20:35:11 10° W 20:37:38 67° S 20:39:41 10° ESE
SPOT 3 Rocket 3.6 20:34:27 10° SSE 20:39:35 87° WSW 20:44:47 10° NNW
YAOGAN 11 4.3 20:37:55 10° NNE 20:42:23 77° WNW 20:46:47 10° SSW
Cosmos 2227 4.3 20:40:14 10° SSW 20:46:00 90° WNW 20:51:48 10° NNE
Okean 3 Rocket 3.6 20:42:11 10° N 20:46:39 87° W 20:51:04 10° S
Cosmos 724 4.3 20:41:42 10° NW 20:47:33 87° NE 20:52:53 12° SE
Ariane Rocket 3.0 20:44:09 10° SSE 20:49:14 88° ENE 20:54:21 10° NNW
NOSS 2-3 (E) 4.5 20:47:13 12° SSE 20:49:37 20° ESE 20:52:25 10° ENE
IRS-1C Rocket 4.1 20:44:30 10° SSE 20:49:46 88° ENE 20:55:04 10° NNW
Okean-O 3.9 20:46:30 10° SSW 20:50:30 35° W 20:54:33 10° NNW
Cosmos 1805 Rocket 3.6 20:48:38 10° N 20:52:57 70° E 20:56:46 13° SSE
Cosmos 1340 Rocket 2.8 20:52:34 10° NNW 20:56:21 69° W 20:59:47 12° S
NOSS 3-2 (A) 3.1 20:51:47 10° SW 20:56:49 80° SE 21:02:56 10° NE
Cosmos 1408 Rocket 3.6 20:52:42 10° N 20:57:07 78° E 21:01:00 13° SSE
USA 215 3.3 20:50:52 10° ESE 20:57:25 85° NNE 21:03:59 10° WNW
Cosmos 1842 Rocket 4.3 20:54:04 10° SSW 20:58:25 55° WNW 21:02:47 10° N
Cosmos 1603 4.1 20:52:50 10° NW 20:58:29 59° WSW 21:03:42 12° S
Cosmos 1743 Rocket 3.8 21:00:13 10° N 21:04:28 55° ENE 21:07:49 16° SSE
Cosmos 1703 3.4 21:04:34 18° SSE 21:06:30 37° E 21:09:29 10° NNE
USA 245 4.1 21:03:22 10° S 21:06:55 39° WSW 21:09:54 10° NNW
Cosmos 1844 Rocket 3.1 21:02:57 10° SW 21:08:29 65° WNW 21:14:02 10° NNE
Meteor 1-22 Rocket 4.4 21:04:07 10° N 21:09:22 56° ENE 21:13:31 16° SSE
SL-14 R/B 4.0 21:07:38 10° SSW 21:11:14 48° WNW 21:14:52 10° N
Cosmos 1553 Rocket 4.0 21:07:45 10° S 21:14:08 80° E 21:20:28 10° NNE
CZ-4C R/B 4.1 21:08:37 10° WNW 21:14:57 34° WSW 21:22:27 10° S
Cosmos 1833 Rocket 3.0 21:12:43 10° NNW 21:18:20 60° NE 21:22:56 15° SE
Cosmos 1151 Rocket 3.1 21:14:34 10° SSW 21:18:54 82° W 21:23:16 10° N
Cosmos 2082 Rocket 4.2 21:18:57 10° NNW 21:23:14 22° NE 21:27:30 10° E
CZ-2C R/B 2.2 21:23:48 21° S 21:25:24 57° WSW 21:28:07 10° NNW
Cosmos 1953 2.3 21:23:57 10° N 21:27:30 56° ENE 21:29:35 22° SSE
SL-24 R/B - RUBIN 2 4.5 21:24:52 10° WSW 21:29:14 51° NW 21:33:31 10° NE
CZ-4B R/B 4.3 21:24:45 11° S 21:29:21 46° W 21:34:22 10° NNW
Okean O Rocket 4.1 21:27:37 10° SW 21:30:15 16° W 21:32:54 10° NW
Cosmos 2278 Rocket 4.0 21:28:07 12° ESE 21:30:16 15° E 21:33:20 10° ENE
Cosmos 1633 Rocket 3.6 21:31:09 10° N 21:35:24 47° ENE 21:38:07 20° SE
Meteor 1-13 Rocket 4.5 21:33:11 17° S 21:37:44 60° E 21:43:35 10° NNE
NOSS 3-2 (C) 3.1 21:33:13 10° SSW 21:38:12 65° SE 21:44:11 10° NE
Cosmos 1461 4.4 21:40:55 10° WNW 21:43:26 19° WSW 21:45:06 14° SSW
NOSS 2-3 (C) 3.5 21:42:37 24° S 21:44:07 38° SE 21:47:28 10° NE
Cosmos 1745 Rocket 4.0 21:40:02 10° N 21:46:19 89° WSW 21:51:04 19° S
Cosmos 2056 Rocket 4.4 21:44:43 10° NNW 21:49:32 39° ENE 21:53:26 15° ESE
Helios 1A 2.9 21:51:21 10° NNE 21:55:16 63° ESE 21:57:27 25° S
Cosmos 2344 3.7 21:49:05 10° SSW 21:56:39 50° ESE 22:03:30 10° NE
GP-B 4.1 21:53:32 10° N 21:57:39 42° W 22:01:23 12° SSW
Helios 1B rocket 2.4 21:57:42 27° SE 21:59:20 53° ENE 22:02:44 10° N
Iridium 4 Rocket 4.0 21:55:05 14° SSW 21:59:47 59° W 22:04:47 10° N
ARIANE 5 R/B 3.3 21:59:12 20° SE 22:01:56 45° ENE 22:06:11 10° N
BREEZE-M R/B 4.5 21:57:28 11° SSW 22:01:57 42° SE 22:10:58 10° ENE
Cosmos 1470 Rocket 3.7 22:02:49 10° N 22:07:16 67° ENE 22:09:41 26° SSE
Okean 2 3.8 22:07:04 27° SE 22:08:36 42° E 22:12:15 10° NNE
Cosmos 1241 Rocket 4.4 22:03:15 10° SSW 22:09:24 77° SE 22:15:40 10° NE
Cosmos 1420 Rocket 3.9 22:04:46 10° NNW 22:10:01 87° WSW 22:13:10 24° SSE
NOSS 2-3 (D) 3.2 22:07:41 10° SW 22:11:22 79° NW 22:15:17 10° NE
ALOS 2 3.1 22:11:55 23° SE 22:14:26 51° ENE 22:18:42 10° N
Cosmos 1538 Rocket 4.2 22:11:36 12° SSW 22:16:29 72° WNW 22:21:44 10° NNE
Cosmos 2315 Rocket 4.0 22:13:38 20° S 22:18:13 88° E 22:24:28 10° N
Cosmos 1943 Rocket 2.7 22:16:33 24° SSE 22:19:33 44° ESE 22:24:52 10° NE
Meteor 1-21 4.2 22:18:13 22° S 22:21:58 82° E 22:27:39 10° NNE
Cosmos 923 Rocket 4.0 22:21:15 23° S 22:24:27 65° ESE 22:29:39 10° NNE
CZ-2C R/B 3.8 22:22:32 10° NNE 22:27:13 69° ESE 22:29:46 27° S
Cosmos 1328 Rocket 3.9 22:24:40 20° SSW 22:27:32 60° WNW 22:31:51 10° N
Cosmos 2112 Rocket 4.4 22:28:53 26° SSE 22:31:22 46° ESE 22:36:19 10° NE
Lacrosse 5 rocket 1.0 22:30:44 34° SSW 22:31:56 51° SE 22:35:22 10° ENE
CZ-2C R/B 3.6 22:31:43 16° SE 22:35:24 38° ENE 22:40:13 10° N
USA 81 4.1 22:32:38 10° N 22:37:56 74° E 22:40:53 27° SSE
NOSS 2-3 (E) 4.2 22:35:33 10° WSW 22:39:04 46° NW 22:42:53 10° NE
Cosmos 1371 Rocket 4.0 22:35:20 10° NNW 22:40:38 88° ENE 22:43:38 26° SSE
USA 215 3.9 22:37:29 23° S 22:40:51 38° SW 22:46:52 10° WNW
PSLV R/B 3.9 22:37:56 10° NNE 22:42:31 59° E 22:44:44 29° S
Cosmos 1869 Rocket 3.9 22:42:24 10° N 22:46:38 55° ENE 22:48:44 27° SE
GEOS 3 Rocket 3.9 22:45:16 26° SSE 22:48:07 54° SW 22:53:26 10° NW
MetOp-A 3.8 22:53:36 27° SE 22:55:30 54° ENE 22:59:15 10° N
NOSS 2-1 (D) 3.5 22:55:58 36° SE 22:56:13 36° SE 22:59:08 10° ENE
Cosmos 1515 Rocket 3.6 22:55:38 28° SSW 22:57:52 71° WNW 23:02:13 10° N
Cosmos 2154 Rocket 4.1 22:51:45 10° N 22:57:58 74° E 23:01:51 24° SSE
Cosmos 2184 Rocket 4.0 22:52:42 10° N 22:59:00 81° E 23:02:54 25° SSE
NOSS 2-1 (C) 3.7 22:59:06 32° SE 22:59:15 33° SE 23:02:08 10° ENE
Cosmos 1833 Rocket 4.0 22:57:14 10° NW 23:01:51 27° WSW 23:04:36 18° SW
Spot 4 4.3 22:59:30 27° SSW 23:01:53 52° W 23:06:37 10° NNW
USA 59 Rocket -0.5 23:01:29 44° SSE 23:02:00 49° SE 23:04:57 10° NE
Cosmos 1733 Rocket 4.1 23:02:42 10° N 23:06:43 37° ENE 23:09:08 20° SE
SAR-Lupe-2 3.2 23:05:52 46° SSE 23:06:43 89° WSW 23:09:58 10° NNW
Cosmos 2082 Rocket 2.2 23:02:30 10° NNW 23:08:11 84° ENE 23:11:51 23° SSE
Okean 3 3.3 23:09:18 33° SSW 23:10:58 77° W 23:14:59 10° N
Cosmos 2278 Rocket 2.1 23:09:54 24° SSW 23:13:26 82° ESE 23:19:08 10° NNE
Cosmos 1331 Rocket 4.0 23:15:17 10° NNW 23:20:28 82° ENE 23:23:34 25° SSE
Okean 1-7 4.0 23:20:00 24° SE 23:21:45 35° E 23:25:36 10° NNE
Cosmos 1400 Rocket 3.5 23:20:58 10° NNW 23:24:23 37° W 23:25:30 29° SW
Cosmos 1680 Rocket 4.0 23:22:43 18° SW 23:26:27 57° WNW 23:31:35 10° NNE
COSMOS 2406 3.7 23:20:48 10° NNW 23:26:28 60° NE 23:31:27 13° SE
CZ-2C R/B 3.1 23:20:57 10° NNE 23:26:35 90° SE 23:29:38 27° SSW
Cosmos 494 Rocket 4.3 23:24:38 21° SW 23:28:09 65° WNW 23:33:24 10° NNE
Cosmos 2056 Rocket 4.3 23:26:54 10° NW 23:31:30 35° WSW 23:33:39 24° SSW
Helios 1B rocket 4.3 23:31:35 12° WSW 23:32:34 13° W 23:34:14 10° WNW
Cosmos 1048 Rocket 4.0 23:31:19 28° S 23:34:05 75° ESE 23:39:21 10° NNE
Cosmos 1328 3.4 23:35:16 41° S 23:36:24 80° E 23:39:58 10° NNE
Cosmos 1812 3.9 23:35:20 10° NW 23:35:32 11° NW 23:35:32 11° NW
ARIANE 5 R/B 4.2 23:36:34 18° SW 23:38:25 23° W 23:42:00 10° NW
ACS3 Solar Sail 1.9 23:34:09 10° NNE 23:39:48 59° E 23:43:11 25° S
USA 238 DEB 3.6 23:36:16 14° SW 23:41:43 79° NW 23:48:38 10° NE
USA 238 3.6 23:36:31 14° SW 23:41:56 79° NW 23:48:50 10° NE
Lacrosse 4 Rocket 4.1 23:39:34 10° N 23:42:38 19° NE 23:45:41 10° E
Geosat 4.1 23:42:06 10° NE 23:47:06 63° ESE 23:49:42 28° S
Cosmos 546 4.4 23:46:24 10° WSW 23:50:11 83° S 23:53:59 10° E
BREEZE-M DEB (TANK) 3.1 23:39:13 10° W 23:50:32 79° SSW 23:54:12 10° ESE
ALOS 2 4.3 23:49:18 17° WSW 23:51:03 21° W 23:54:22 10° NW
SWAS 4.2 23:52:23 33° SSW 23:54:06 80° ESE 23:58:11 10° NNE
TIMED 4.4 23:53:01 31° SSW 23:55:02 85° WNW 23:59:18 10° NNE
Cosmos 1441 Rocket 4.3 23:54:17 21° WSW 23:55:32 28° WNW 23:58:24 10° N
